Location: ???????
(55.4362°N, 38.1183°E)
Time: 18:15:51
(UTC+00:00)

FALCON 9 DEB - Pass Details

Date: 17 June 2021
Orbit: 358 x 373 km, 53.0° (Epoch: 30 July)

Event Time Altitude Azimuth Distance (km) Brightness Sun altitude
Rises 22:11:32 0° 259° (W) 2,259 6.5 -10.6°
Reaches altitude 10° 22:13:36 10° 255° (WSW) 1,405 5.5 -10.6°
Maximum altitude 22:16:41 54° 177° (S) 471 2.9 -10.5°
Drops below altitude 10° 22:19:45 10° 99° (E) 1,398 5.7 -10.4°
Sets 22:21:48 0° 94° (E) 2,247 6.9 -10.3°
